Hourly Data Report for October 08, 2015

All times are specified in Local Standard Time (LST). Add 1 hour to adjust for Daylight Saving Time where and when it is observed.

PANGNIRTUNG
NUNAVUT

66°08'36.300" N
65°42'40.500" W
22.60 m
2403049
71826
WXP

Download Data

Hourly Data (October 2015)
Hourly Data Report for October 8, 2015
Temp Definition
°C
Dew Point Temp Definition
°C
Rel Hum Definition
%
Wind Dir Definition
10's deg

Wind Spd Definition
km/h
Visibility Definition
km
Stn Press Definition
kPa
Hmdx Definition


Wind Chill Definition


Weather Definition


TIME
00:00 -5.5 -9.0 77 5 8   99.90   -9 LegendNANA
01:00 -5.6 -9.4 74 6 10   99.89   -10 LegendNANA
02:00 -5.4 -9.3 74 7 7   99.88   -9 LegendNANA
03:00 -4.9 -9.6 69 8 9   99.88   -9 LegendNANA
04:00 -4.5 -8.7 72 5 15   99.86   -10 LegendNANA
05:00 -4.3 -9.4 68 5 14   99.85   -9 LegendNANA
06:00 -4.1 -9.6 65 8 15   99.86   -9 LegendNANA
07:00 -4.3 -9.0 70 9 13   99.84   -9 LegendNANA
08:00 -3.8 -8.4 71 9 10   99.85   -8 LegendNANA
09:00 -3.5 -7.7 72 10 7   99.87   -6 LegendNANA
10:00 -3.2 -8.1 69 10 9   99.86   -7 LegendNANA
11:00 -3.3 -7.5 72 10 9   99.87   -7 LegendNANA
12:00 -2.9 -7.1 73 12 8   99.88   -6 LegendNANA
13:00 -2.4 -7.3 69 5 5   99.88   -4 LegendNANA
14:00 -2.7 -6.6 75 13 6   99.91   -5 LegendNANA
15:00 -2.3 -6.5 73 11 3   99.92   -3 LegendNANA
16:00 -2.2 -6.4 73 2 2   99.94   -3 LegendNANA
17:00 -1.7 -6.5 70 19 4   99.94   -3 LegendNANA
18:00 -2.3 -5.4 79 6 9   99.95   -6 LegendNANA
19:00 -2.8 -4.9 86 10 7   99.98   -6 LegendNANA
20:00 -3.4 -5.0 89 9 4   99.98   -5 LegendNANA
21:00 -3.2 -5.3 86 9 4   99.97   -5 LegendNANA
22:00 -3.2 -5.9 82 11 6   99.97   -6 LegendNANA
23:00 -3.6 -5.7 86 8 6   99.95   -6 LegendNANA

Notes on Data Quality.

Legend

  • E = Estimated
  • M = Missing
  • NA = Not Available
  • ‡ = Partner data that is not subject to review by the National Climate Archives
Date modified: